Time,TemperatureF,DewpointF,PressureIn,WindDirection,WindDirectionDegrees,WindSpeedMPH,WindSpeedGustMPH,Humidity,HourlyPrecipIn,Conditions,Clouds,dailyrainin,SoftwareType,DateUTC
2014-07-26 00:08:00,73.1,38.0,29.82,SW,215,0.0,-999.0,28,-99.99,,,0.00,weatherlink.com 1.10,2014-07-26 07:08:00,
2014-07-26 00:23:00,72.6,39.0,29.82,SW,215,0.0,-999.0,29,-99.99,,,0.00,weatherlink.com 1.10,2014-07-26 07:23:00,
2014-07-26 00:38:00,72.5,38.0,29.82,SW,215,0.0,-999.0,29,-99.99,,,0.00,weatherlink.com 1.10,2014-07-26 07:38:00,
2014-07-26 00:53:00,72.5,38.0,29.82,SW,215,0.0,-999.0,29,-99.99,,,0.00,weatherlink.com 1.10,2014-07-26 07:53:00,
2014-07-26 01:08:00,72.0,39.0,29.82,SW,215,0.0,-999.0,30,-99.99,,,0.00,weatherlink.com 1.10,2014-07-26 08:08:00,
2014-07-26 01:23:00,71.9,39.0,29.82,SW,215,0.0,-999.0,30,-99.99,,,0.00,weatherlink.com 1.10,2014-07-26 08:23:00,
2014-07-26 01:38:00,71.2,39.0,29.82,SW,215,0.0,-999.0,31,-99.99,,,0.00,weatherlink.com 1.10,2014-07-26 08:38:00,
2014-07-26 01:53:00,71.0,40.0,29.82,SW,215,0.0,-999.0,32,-99.99,,,0.00,weatherlink.com 1.10,2014-07-26 08:53:00,
2014-07-26 02:08:00,71.8,40.0,29.82,SW,215,0.0,-999.0,32,-99.99,,,0.00,weatherlink.com 1.10,2014-07-26 09:08:00,
2014-07-26 02:23:00,71.9,40.0,29.82,SW,215,0.0,-999.0,32,-99.99,,,0.00,weatherlink.com 1.10,2014-07-26 09:23:00,
2014-07-26 02:38:00,71.7,40.0,29.82,SW,215,0.0,-999.0,32,-99.99,,,0.00,weatherlink.com 1.10,2014-07-26 09:38:00,
2014-07-26 02:53:00,71.5,40.0,29.81,SW,215,0.0,-999.0,32,-99.99,,,0.00,weatherlink.com 1.10,2014-07-26 09:53:00,
2014-07-26 03:08:00,71.9,40.0,29.81,SW,215,0.0,-999.0,31,-99.99,,,0.00,weatherlink.com 1.10,2014-07-26 10:08:00,
2014-07-26 03:23:00,72.0,40.0,29.81,SW,215,0.0,-999.0,31,-99.99,,,0.00,weatherlink.com 1.10,2014-07-26 10:23:00,
2014-07-26 03:38:00,71.7,39.0,29.82,SW,215,0.0,-999.0,31,-99.99,,,0.00,weatherlink.com 1.10,2014-07-26 10:38:00,
2014-07-26 03:53:00,71.5,40.0,29.82,SW,215,0.0,-999.0,32,-99.99,,,0.00,weatherlink.com 1.10,2014-07-26 10:53:00,
2014-07-26 04:08:00,71.4,40.0,29.82,SW,215,0.0,-999.0,32,-99.99,,,0.00,weatherlink.com 1.10,2014-07-26 11:08:00,
2014-07-26 04:23:00,71.2,40.0,29.82,SW,215,0.0,-999.0,32,-99.99,,,0.00,weatherlink.com 1.10,2014-07-26 11:23:00,
2014-07-26 04:37:00,71.3,40.0,29.82,SW,215,0.0,-999.0,32,-99.99,,,0.00,weatherlink.com 1.10,2014-07-26 11:37:00,
2014-07-26 04:52:00,71.3,40.0,29.82,SW,215,0.0,-999.0,32,-99.99,,,0.00,weatherlink.com 1.10,2014-07-26 11:52:00,
2014-07-26 05:07:00,71.0,40.0,29.81,SW,215,0.0,-999.0,33,-99.99,,,0.00,weatherlink.com 1.10,2014-07-26 12:07:00,
2014-07-26 05:22:00,70.8,40.0,29.81,SW,215,0.0,-999.0,33,-99.99,,,0.00,weatherlink.com 1.10,2014-07-26 12:22:00,
2014-07-26 05:37:00,70.7,39.0,29.81,SW,215,0.0,-999.0,32,-99.99,,,0.00,weatherlink.com 1.10,2014-07-26 12:37:00,
2014-07-26 05:52:00,71.2,40.0,29.81,SW,215,0.0,-999.0,32,-99.99,,,0.00,weatherlink.com 1.10,2014-07-26 12:52:00,
2014-07-26 06:07:00,71.7,40.0,29.82,SW,215,0.0,-999.0,32,-99.99,,,0.00,weatherlink.com 1.10,2014-07-26 13:07:00,
2014-07-26 06:22:00,72.0,40.0,29.82,SW,215,0.0,-999.0,32,-99.99,,,0.00,weatherlink.com 1.10,2014-07-26 13:22:00,
2014-07-26 06:37:00,72.1,41.0,29.82,SW,215,0.0,-999.0,32,-99.99,,,0.00,weatherlink.com 1.10,2014-07-26 13:37:00,
2014-07-26 06:52:00,71.7,42.0,29.83,SW,215,0.0,-999.0,34,-99.99,,,0.00,weatherlink.com 1.10,2014-07-26 13:52:00,
2014-07-26 07:07:00,72.1,42.0,29.83,SW,215,0.0,-999.0,34,-99.99,,,0.00,weatherlink.com 1.10,2014-07-26 14:07:00,
2014-07-26 07:22:00,74.2,43.0,29.83,SW,215,0.0,-999.0,33,-99.99,,,0.00,weatherlink.com 1.10,2014-07-26 14:22:00,
2014-07-26 07:37:00,74.5,44.0,29.84,SW,215,0.0,-999.0,34,-99.99,,,0.00,weatherlink.com 1.10,2014-07-26 14:37:00,
2014-07-26 07:52:00,74.4,44.0,29.84,SW,215,0.0,-999.0,34,-99.99,,,0.00,weatherlink.com 1.10,2014-07-26 14:52:00,
2014-07-26 08:07:00,74.7,46.0,29.84,SW,215,0.0,-999.0,36,-99.99,,,0.00,weatherlink.com 1.10,2014-07-26 15:07:00,
2014-07-26 08:22:00,75.3,48.0,29.84,SW,215,0.0,-999.0,38,-99.99,,,0.00,weatherlink.com 1.10,2014-07-26 15:22:00,
2014-07-26 08:37:00,75.6,50.0,29.85,SW,215,0.0,-999.0,40,-99.99,,,0.00,weatherlink.com 1.10,2014-07-26 15:37:00,
2014-07-26 08:52:00,76.2,47.0,29.85,SW,215,0.0,-999.0,35,-99.99,,,0.00,weatherlink.com 1.10,2014-07-26 15:52:00,
2014-07-26 09:07:00,79.2,49.0,29.85,SW,215,0.0,-999.0,35,-99.99,,,0.00,weatherlink.com 1.10,2014-07-26 16:07:00,
2014-07-26 09:22:00,82.2,48.0,29.85,SW,215,0.0,-999.0,30,-99.99,,,0.00,weatherlink.com 1.10,2014-07-26 16:22:00,
2014-07-26 09:37:00,83.8,47.0,29.85,SW,215,0.0,-999.0,28,-99.99,,,0.00,weatherlink.com 1.10,2014-07-26 16:37:00,
2014-07-26 09:52:00,84.4,47.0,29.86,SW,215,0.0,-999.0,27,-99.99,,,0.00,weatherlink.com 1.10,2014-07-26 16:52:00,
2014-07-26 10:07:00,85.1,47.0,29.86,SW,215,0.0,-999.0,26,-99.99,,,0.00,weatherlink.com 1.10,2014-07-26 17:07:00,
2014-07-26 10:22:00,85.2,47.0,29.86,SW,215,0.0,-999.0,26,-99.99,,,0.00,weatherlink.com 1.10,2014-07-26 17:22:00,
2014-07-26 10:37:00,85.0,43.0,29.86,SW,215,0.0,-999.0,23,-99.99,,,0.00,weatherlink.com 1.10,2014-07-26 17:37:00,
2014-07-26 10:52:00,86.2,45.0,29.86,WSW,239,0.0,-999.0,24,-99.99,,,0.00,weatherlink.com 1.10,2014-07-26 17:52:00,